North Adams, MA

8:30 PM EDT on June 25, 2017 (GMT -0400)
Harriman And West

Weather History for KAQW - April, 2013

Change the Weather History Date:

Thursday, April 4, 2013

  Actual Average Record
Temperature  
Mean Temperature 38 °F -  
Max Temperature 52 °F 48 °F 57 °F (1997)
Min Temperature 25 °F 28 °F 19 °F (2016)
Degree Days  
Heating Degree Days 26    
Moisture  
Dew Point 14 °F    
Average Humidity 40    
Maximum Humidity 63    
Minimum Humidity 20    
Precipitation  
Precipitation 0.00 in - - ()
Sea Level Pressure  
Sea Level Pressure 30.19 in    
Wind  
Wind Speed 7 mph (WSW)    
Max Wind Speed 12 mph    
Max Gust Speed 21 mph    
Visibility 10 miles    
Events      
Averages and records for this station are not official NWS values.
T = Trace of Precipitation, MM = Missing Value Source: NWS Daily Summary

Daily Weather History Graph

Daily Weather History Graph

Search for Another Location

Airport or City:

Trip Planner

Search our weather history database for the weather conditions in past years. The results will help you decide how hot, cold, wet, or windy it might be!

Date:

Astronomy

Apr. 04, 2013 Rise Set
Actual Time 6:29 AM EDT 7:22 PM EDT
Civil Twilight 6:00 AM EDT 7:51 PM EDT
Nautical Twilight 5:26 AM EDT 8:25 PM EDT
Astronomical Twilight 4:51 AM EDT 9:01 PM EDT
Moon 3:01 AM EDT (4/4) 1:30 PM EDT (4/4)
Length of Visible Light 13h 50m
Length of Day
12h 53m
Waning Crescent, 34% of the Moon is Illuminated
Apr 4
Waning Crescent
Apr 10
New
Apr 18
First Quarter
Apr 25
Full
May 2
Last Quarter

Hourly Weather History & Observations

Time (EDT) Temp. Windchill Dew Point Humidity Pressure Visibility Wind Dir Wind Speed Gust Speed Precip Events Conditions
12:52 AM 28.9 °F 19.8 °F 12.0 °F 49% 30.26 in 10.0 mi West 10.4 mph 20.7 mph N/A   Unknown
1:52 AM 28.9 °F 21.9 °F 12.9 °F 51% 30.26 in 10.0 mi WNW 6.9 mph - N/A   Clear
2:52 AM 28.0 °F 22.8 °F 12.9 °F 53% 30.26 in 10.0 mi West 4.6 mph - N/A   Clear
3:52 AM 26.1 °F 19.4 °F 14.0 °F 60% 30.26 in 10.0 mi West 5.8 mph - N/A   Clear
4:52 AM 25.0 °F 18.1 °F 14.0 °F 63% 30.27 in 10.0 mi West 5.8 mph - N/A   Clear
5:52 AM 27.0 °F 16.7 °F 15.1 °F 61% 30.30 in 10.0 mi WSW 11.5 mph - N/A   Clear
6:52 AM 26.1 °F 19.4 °F 15.1 °F 63% 30.34 in 10.0 mi WSW 5.8 mph - N/A   Clear
7:52 AM 28.9 °F 22.8 °F 16.0 °F 58% 30.35 in 10.0 mi West 5.8 mph - N/A   Clear
8:52 AM 30.9 °F 25.2 °F 16.0 °F 54% 30.34 in 10.0 mi WSW 5.8 mph - N/A   Clear
9:52 AM 34.0 °F 28.8 °F 16.0 °F 48% 30.32 in 10.0 mi SSW 5.8 mph - N/A   Partly Cloudy
10:52 AM 37.0 °F 32.4 °F 12.9 °F 37% 30.29 in 10.0 mi WSW 5.8 mph - N/A   Clear
11:52 AM 39.9 °F 35.1 °F 12.9 °F 33% 30.27 in 10.0 mi SSW 6.9 mph - N/A   Clear
12:52 PM 44.1 °F 40.8 °F 12.9 °F 28% 30.23 in 10.0 mi SW 5.8 mph - N/A   Clear
1:52 PM 46.9 °F - 12.0 °F 24% 30.19 in 10.0 mi WSW 8.1 mph - N/A   Clear
2:52 PM 48.0 °F - 12.9 °F 24% 30.16 in 10.0 mi Variable 6.9 mph - N/A   Clear
3:52 PM 50.0 °F - 12.0 °F 22% 30.12 in 10.0 mi Variable 5.8 mph - N/A   Clear
4:52 PM 52.0 °F - 12.0 °F 20% 30.08 in 10.0 mi West 9.2 mph - N/A   Clear
5:52 PM 51.1 °F - 10.9 °F 20% 30.07 in 10.0 mi WSW 10.4 mph 18.4 mph N/A   Clear
6:52 PM 48.9 °F - 12.9 °F 24% 30.06 in 10.0 mi Calm Calm - N/A   Clear
7:52 PM 44.1 °F - 12.9 °F 28% 30.06 in 10.0 mi Calm Calm - N/A   Clear
8:52 PM 39.0 °F - 18.0 °F 43% 30.06 in 10.0 mi Calm Calm - N/A   Clear
9:52 PM 44.1 °F 42.5 °F 15.1 °F 31% 30.04 in 10.0 mi Variable 3.5 mph - N/A   Clear
10:52 PM 45.0 °F 41.2 °F 16.0 °F 31% 30.01 in 10.0 mi West 6.9 mph - N/A   Clear
11:52 PM 43.0 °F - 17.1 °F 35% 30.00 in 10.0 mi Calm Calm - N/A   Clear